Regional Weather Roundup
Issued by NWS

Home | Current Version | Previous Version | Graphics & Text | Print | Product List | Glossary On
Versions: 1 2 3 4 5 6 7 8 9 10 11 12 13 14 15 16 17 18 19 20 21 22 23 24 25 26 27 28 29 30 31 32 33 34 35 36 37 38 39 40 41 42 43 44 45 46 47 48 49 50
000
ASUS43 KBIS 270302
RWRND

NORTH DAKOTA REGIONAL WEATHER ROUNDUP
NATIONAL WEATHER SERVICE BISMARCK ND
1000 PM CDT SUN MAR 26 2017

NOTE: "FAIR" INDICATES FEW OR NO CLOUDS BELOW 12,000 FEET WITH NO
SIGNIFICANT WEATHER AND/OR OBSTRUCTIONS TO VISIBILITY.


NDZ001>003-009>011-017-270400-
NORTHWEST NORTH DAKOTA

CITY           SKY/WX    TMP DP  RH WIND       PRES   REMARKS
WILLISTON      FAIR      47  24  40 N8        29.88R
MINOT          MOCLDY    46  39  76 E7        29.88R
MINOT AFB      CLOUDY    45  38  79 E8        29.88R
$$

NDZ018>021-031>035-040>046-270400-
SOUTHWEST NORTH DAKOTA

CITY           SKY/WX    TMP DP  RH WIND       PRES   REMARKS
BISMARCK       FAIR      42  36  79 SE6       29.91F
DICKINSON      CLOUDY    49  29  46 NE5       29.87R
GARRISON         N/A     48  36  63 S9        29.87F
HETTINGER ARPT CLEAR     41  35  79 SW5       29.91R
$$

NDZ004>008-012>016-024-026-027-054-270400-
NORTHEAST NORTH DAKOTA

CITY           SKY/WX    TMP DP  RH WIND       PRES   REMARKS
GRAND FORKS    CLOUDY    39  38  96 NE5       29.95S
GRND FRKS AFB  FOG       33  33  99 CALM      29.95S VSB 3/4
DEVILS LAKE    FAIR      38  37  97 SE8       29.93S
$$

NDZ022-023-025-028>030-036>039-047>053-270400-
SOUTHEAST NORTH DAKOTA

CITY           SKY/WX    TMP DP  RH WIND       PRES   REMARKS
FARGO          CLOUDY    38  36  92 E3        29.94F
JAMESTOWN      FAIR      37  35  92 SE3       29.91F
$$





USA.gov is the U.S. government's official web portal to all federal, state and local government web resources and services.